Погода в Кайсацком

Россия / Волгоградская область     49°44′30″N   46°50′47″E
темп.,
°C
ветер,
м/с
пор.,
м/с
влажн.,
%
обл.,
%
осадки,
мм/ч
давл.,
гПа
погр.,
м
13 мая, чт
чт1300:00+13с48820 0.0 1018133
03:00+12ссв489190 0.0 1017143
06:00+16в478356 0.1 1016192
09:00+22юв5662100 0.2 1015698
12:00+25ююв57500 0.0 10161640
15:00+27ююв57440 0.0 10161784
18:00+25ююз34540 0.0 101679
21:00+19зсз11675 0.0 101711
14 мая, пт
пт1400:00+19в44637 0.0 101735
03:00+17юв456645 0.0 101851
06:00+18юв4970100 0.0 1018204
09:00+24ююв6847100 0.0 1019556
12:00+28юв78345 0.0 10191047
15:00+31ююв710272 0.0 10181810
18:00+26юв511422 0.0 1017227
21:00+22юв615364 0.0 1018246
15 мая, сб
сб1500:00+19ююв5133438 0.0 1019183
03:00+17юв5103472 0.0 1019122
06:00+18юв514445 0.0 1019261
09:00+26ююв812344 0.0 1019583
12:00+30ююв810237 0.0 10182013
15:00+31ююв79225 0.0 10182950
18:00+27юв474141 0.0 1017135
21:00+21юв5123823 0.0 1017168
16 мая, вс
вс1600:00+20ююв48360 0.0 1017113
03:00+18ююв44410 0.0 101743
06:00+20вюв45475 0.0 101893
09:00+27юв610343 0.0 1017618
12:00+31ююв810252 0.0 10162777
15:00+32ююв78225 0.0 10153606
18:00+28юв46415 0.0 1015121
21:00+22ююв4538100 0.0 101559
17 мая, пн
пн1700:00+20вюв442997 0.0 101533
03:00+19вюв452997 0.0 101544
06:00+19в5104427 0.0 1016185
09:00+27вюв7103029 0.0 1015546
12:00+31юв89195 0.0 10152711
15:00+31вюв781752 0.0 10142787
18:00+27в463577 0.0 1014111
21:00+22вюв473437 0.0 101483